Location: Cruquius
(52.3348°N, 4.6319°E)
Time: 02:52:28
(UTC+00:00)

Cosmos 2228 Rocket - Pass Details

Date: 12 May 2021
Orbit: 618 x 651 km, 82.5° (Epoch: 14 June)

Event Time Altitude Azimuth Distance (km) Brightness Sun altitude
Exits shadow 20:29:54 11° 137° (SE) 1,944 4.9 -8.4°
Maximum altitude 20:33:13 23° 87° (E) 1,340 4.4 -8.8°
Drops below altitude 10° 20:36:45 10° 34° (NE) 2,029 5.9 -9.1°
Sets 20:39:22 0° 21° (NNE) 2,950 6.9 -9.4°
